| time (UTC) | temp F | wind direction | speed knots | gust knots | rain 1hr in | rain 24hr in | rain mn in | humidity % | barometer mb |
| 20260504204402 | 51 | 283 | 2.6 | 6.1 | 0.00 | 0.00 | 0.00 | 62 | 1003.3 |
| 20260504204344 | 51 | 283 | 2.6 | 6.1 | 0.00 | 0.00 | 0.00 | 63 | 1003.3 |
| 20260504203844 | 51 | 230 | 2.6 | 6.1 | 0.00 | 0.00 | 0.00 | 64 | 1003.3 |
| 20260504202902 | 51 | 269 | 1.7 | 4.3 | 0.00 | 0.00 | 0.00 | 64 | 1003.3 |
| 20260504202402 | 51 | 266 | 2.6 | 4.3 | 0.00 | 0.00 | 0.00 | 64 | 1003.3 |
| 20260504201904 | 51 | 261 | 1.7 | 4.3 | 0.00 | 0.00 | 0.00 | 64 | 1003.3 |
| 20260504201404 | 51 | 309 | 2.6 | 4.3 | 0.00 | 0.00 | 0.00 | 64 | 1003.2 |
| 20260504200903 | 51 | 248 | 2.6 | 4.3 | 0.00 | 0.00 | 0.00 | 65 | 1003.3 |
| 20260504200852 | 51 | 303 | 1.7 | 4.3 | 0.00 | 0.00 | 0.00 | 65 | 1003.2 |
| 20260504195902 | 51 | 257 | 2.6 | 4.3 | 0.00 | 0.00 | 0.00 | 64 | 1003.3 |
| 20260504195403 | 52 | 265 | 1.7 | 3.5 | 0.00 | 0.00 | 0.00 | 64 | 1003.2 |
| 20260504194903 | 52 | 259 | 1.7 | 3.5 | 0.00 | 0.00 | 0.00 | 64 | 1003.2 |
| 20260504194405 | 52 | 248 | 1.7 | 3.5 | 0.00 | 0.00 | 0.00 | 65 | 1003.2 |
| 20260504193905 | 52 | 275 | 1.7 | 3.5 | 0.00 | 0.00 | 0.00 | 64 | 1003.1 |
| 20260504193403 | 52 | 265 | 1.7 | 3.5 | 0.00 | 0.00 | 0.00 | 64 | 1003.1 |
| 20260504192904 | 52 | 254 | 0.9 | 5.2 | 0.00 | 0.00 | 0.00 | 64 | 1003.2 |
| 20260504192404 | 53 | 261 | 1.7 | 5.2 | 0.00 | 0.00 | 0.00 | 64 | 1003.1 |
| 20260504191903 | 53 | 268 | 1.7 | 3.5 | 0.00 | 0.00 | 0.00 | 64 | 1003.1 |
| 20260504191405 | 53 | 272 | 1.7 | 2.6 | 0.00 | 0.00 | 0.00 | 64 | 1003.0 |
| 20260504190904 | 53 | 305 | 1.7 | 5.2 | 0.00 | 0.00 | 0.00 | 63 | 1003.0 |
| 20260504190405 | 54 | 281 | 3.5 | 5.2 | 0.00 | 0.00 | 0.00 | 63 | 1003.1 |
| 20260504185904 | 54 | 274 | 2.6 | 4.3 | 0.00 | 0.00 | 0.00 | 63 | 1003.1 |
| 20260504185403 | 54 | 269 | 1.7 | 5.2 | 0.00 | 0.00 | 0.00 | 63 | 1003.1 |
| 20260504185133 | 54 | 266 | 3.5 | 5.2 | 0.00 | 0.00 | 0.00 | 63 | 1003.1 |
| 20260504184404 | 54 | 276 | 1.7 | 5.2 | 0.00 | 0.00 | 0.00 | 64 | 1003.0 |
| 20260504183904 | 54 | 286 | 1.7 | 5.2 | 0.00 | 0.00 | 0.00 | 63 | 1003.1 |
| 20260504183403 | 55 | 298 | 1.7 | 6.1 | 0.00 | 0.00 | 0.00 | 63 | 1003.1 |
| 20260504183129 | 55 | 275 | 4.3 | 6.1 | 0.00 | 0.00 | 0.00 | 63 | 1003.1 |
| 20260504182403 | 55 | 276 | 2.6 | 6.1 | 0.00 | 0.00 | 0.00 | 62 | 1003.0 |
| 20260504181903 | 55 | 285 | 2.6 | 6.1 | 0.00 | 0.00 | 0.00 | 62 | 1003.1 |
| 20260504181403 | 55 | 296 | 3.5 | 4.3 | 0.00 | 0.00 | 0.00 | 62 | 1003.0 |
| 20260504180903 | 55 | 274 | 2.6 | 8.7 | 0.00 | 0.00 | 0.00 | 62 | 1003.0 |
| 20260504180403 | 56 | 296 | 4.3 | 8.7 | 0.00 | 0.00 | 0.00 | 61 | 1003.0 |
| 20260504180123 | 56 | 303 | 3.5 | 7.8 | 0.00 | 0.00 | 0.00 | 62 | 1002.9 |
| 20260504175403 | 55 | 319 | 5.2 | 8.7 | 0.00 | 0.00 | 0.00 | 62 | 1002.9 |
| 20260504174903 | 55 | 300 | 3.5 | 8.7 | 0.00 | 0.00 | 0.00 | 61 | 1002.9 |
| 20260504174403 | 56 | 296 | 3.5 | 9.6 | 0.00 | 0.00 | 0.00 | 61 | 1002.9 |
| 20260504173904 | 56 | 285 | 4.3 | 11.3 | 0.00 | 0.00 | 0.00 | 60 | 1002.8 |
| 20260504173403 | 56 | 288 | 5.2 | 11.3 | 0.00 | 0.00 | 0.00 | 59 | 1002.8 |
| 20260504172903 | 56 | 275 | 4.3 | 8.7 | 0.00 | 0.00 | 0.00 | 59 | 1002.8 |
| 20260504172403 | 57 | 303 | 6.1 | 11.3 | 0.00 | 0.00 | 0.00 | 58 | 1002.8 |
| 20260504171903 | 57 | 310 | 5.2 | 13.9 | 0.00 | 0.00 | 0.00 | 57 | 1002.8 |
| 20260504171403 | 57 | 289 | 9.6 | 13.9 | 0.00 | 0.00 | 0.00 | 58 | 1002.7 |
| 20260504170904 | 57 | 298 | 6.1 | 13.0 | 0.00 | 0.00 | 0.00 | 57 | 1002.7 |
| 20260504170403 | 57 | 258 | 6.1 | 13.9 | 0.00 | 0.00 | 0.00 | 56 | 1002.7 |
| 20260504160404 | 59 | 238 | 4.3 | 10.4 | 0.00 | 0.00 | 0.00 | 65 | 1002.0 |
| 20260504150903 | 58 | 195 | 3.5 | 8.7 | 0.00 | 0.00 | 0.00 | 74 | 1001.6 |
| 20260504150403 | 58 | 248 | 4.3 | 9.6 | 0.00 | 0.00 | 0.00 | 74 | 1001.6 |
| 20260504140903 | 57 | 202 | 5.2 | 8.7 | 0.00 | 0.00 | 0.00 | 75 | 1001.9 |
| 20260504140621 | 57 | 265 | 4.3 | 8.7 | 0.00 | 0.00 | 0.00 | 76 | 1001.9 |
| 20260504130403 | 56 | 183 | 6.1 | 8.7 | 0.00 | 0.00 | 0.00 | 79 | 1002.3 |
| 20260504110403 | 52 | 269 | 3.5 | 7.8 | 0.00 | 0.00 | 0.00 | 85 | 1003.1 |
| 20260504110128 | 52 | 266 | 5.2 | 7.8 | 0.00 | 0.00 | 0.00 | 86 | 1003.1 |
| 20260504100403 | 50 | 265 | 1.7 | 4.3 | 0.00 | 0.00 | 0.00 | 90 | 1003.2 |
| 20260504081403 | 45 | 180 | 1.7 | 2.6 | 0.00 | 0.00 | 0.00 | 93 | 1003.4 |
| 20260504080903 | 44 | 164 | 1.7 | 3.5 | 0.00 | 0.00 | 0.00 | 93 | 1003.4 |
| 20260504080403 | 44 | 179 | 1.7 | 3.5 | 0.00 | 0.00 | 0.00 | 93 | 1003.4 |
| 20260504050404 | 40 | 182 | 1.7 | 2.6 | 0.00 | 0.00 | 0.00 | 89 | 1004.9 |
| 20260504050124 | 40 | 188 | 0.9 | 3.5 | 0.00 | 0.00 | 0.00 | 89 | 1005.0 |
| 20260504045403 | 40 | 199 | 0.9 | 3.5 | 0.00 | 0.00 | 0.00 | 89 | 1005.0 |
| 20260504044903 | 40 | 203 | 1.7 | 3.5 | 0.00 | 0.00 | 0.00 | 88 | 1005.1 |
| 20260504044404 | 40 | 185 | 1.7 | 3.5 | 0.00 | 0.00 | 0.00 | 88 | 1005.1 |
| 20260504043904 | 40 | 164 | 1.7 | 3.5 | 0.00 | 0.00 | 0.00 | 87 | 1005.1 |
| 20260504043404 | 41 | 164 | 1.7 | 1.7 | 0.00 | 0.00 | 0.00 | 87 | 1005.2 |
| 20260504043128 | 41 | 164 | 0.0 | 0.0 | 0.00 | 0.00 | 0.00 | 86 | 1005.3 |
| 20260504042404 | 41 | 164 | 0.0 | 0.0 | 0.00 | 0.00 | 0.00 | 85 | 1005.3 |
| 20260504041903 | 41 | 164 | 0.0 | 0.0 | 0.00 | 0.00 | 0.00 | 84 | 1005.3 |
| 20260504041403 | 41 | 164 | 0.0 | 0.0 | 0.00 | 0.00 | 0.00 | 83 | 1005.2 |
| 20260504040903 | 41 | 164 | 0.0 | 0.0 | 0.00 | 0.00 | 0.00 | 83 | 1005.1 |
| 20260504040403 | 42 | 164 | 0.0 | 0.0 | 0.00 | 0.00 | 0.00 | 81 | 1005.2 |
| 20260504035903 | 42 | 164 | 0.0 | 0.9 | 0.00 | 0.00 | 0.00 | 81 | 1005.2 |
| 20260504035404 | 42 | 164 | 0.0 | 2.6 | 0.00 | 0.00 | 0.00 | 81 | 1005.0 |
| 20260504034903 | 42 | 164 | 0.9 | 2.6 | 0.00 | 0.00 | 0.00 | 80 | 1005.1 |
| 20260504034403 | 42 | 164 | 0.9 | 1.7 | 0.00 | 0.00 | 0.00 | 80 | 1005.2 |
| 20260504034123 | 42 | 164 | 0.0 | 1.7 | 0.00 | 0.00 | 0.00 | 80 | 1005.3 |
| 20260504033403 | 42 | 164 | 1.7 | 1.7 | 0.00 | 0.00 | 0.00 | 80 | 1005.3 |
| 20260504032903 | 42 | 164 | 0.0 | 0.0 | 0.00 | 0.00 | 0.00 | 80 | 1005.4 |
| 20260504032621 | 42 | 164 | 0.0 | 0.0 | 0.00 | 0.00 | 0.00 | 79 | 1005.5 |
| 20260504031903 | 42 | 164 | 0.0 | 0.0 | 0.00 | 0.00 | 0.00 | 79 | 1005.5 |
| 20260504031403 | 42 | 164 | 0.0 | 0.0 | 0.00 | 0.00 | 0.00 | 78 | 1005.6 |
| 20260504030903 | 42 | 164 | 0.0 | 1.7 | 0.00 | 0.00 | 0.00 | 77 | 1005.7 |
| 20260504030403 | 42 | 164 | 0.0 | 1.7 | 0.00 | 0.00 | 0.00 | 77 | 1005.7 |
| 20260504025903 | 42 | 164 | 0.9 | 0.9 | 0.00 | 0.00 | 0.00 | 77 | 1005.8 |
| 20260504025403 | 42 | 164 | 0.0 | 0.9 | 0.00 | 0.00 | 0.00 | 77 | 1006.0 |
| 20260504024902 | 42 | 164 | 0.0 | 1.7 | 0.00 | 0.00 | 0.00 | 76 | 1006.1 |
| 20260504024623 | 42 | 164 | 0.0 | 1.7 | 0.00 | 0.00 | 0.00 | 76 | 1006.2 |
| 20260504023904 | 42 | 164 | 0.0 | 0.9 | 0.00 | 0.00 | 0.00 | 76 | 1006.4 |
| 20260504023404 | 42 | 164 | 0.0 | 0.9 | 0.00 | 0.00 | 0.00 | 76 | 1006.4 |
| 20260504022903 | 42 | 164 | 0.0 | 1.7 | 0.00 | 0.00 | 0.00 | 76 | 1006.5 |
| 20260504022403 | 42 | 164 | 1.7 | 1.7 | 0.00 | 0.00 | 0.00 | 76 | 1006.4 |
| 20260504022126 | 42 | 164 | 0.0 | 0.0 | 0.00 | 0.00 | 0.00 | 77 | 1006.3 |
| 20260504021404 | 42 | 164 | 0.0 | 0.0 | 0.00 | 0.00 | 0.00 | 76 | 1006.2 |
| 20260504020903 | 42 | 164 | 0.0 | 0.0 | 0.00 | 0.00 | 0.00 | 77 | 1006.3 |
| 20260504020403 | 42 | 164 | 0.0 | 0.9 | 0.00 | 0.00 | 0.00 | 76 | 1006.3 |
| 20260504015903 | 42 | 164 | 0.0 | 1.7 | 0.00 | 0.00 | 0.00 | 76 | 1006.4 |
| 20260504015403 | 42 | 164 | 0.0 | 1.7 | 0.00 | 0.00 | 0.00 | 76 | 1006.5 |
| 20260504014903 | 42 | 164 | 0.9 | 2.6 | 0.00 | 0.00 | 0.00 | 76 | 1006.5 |
| 20260504014404 | 42 | 164 | 0.9 | 2.6 | 0.00 | 0.00 | 0.00 | 76 | 1006.5 |
| 20260504013903 | 42 | 164 | 0.9 | 2.6 | 0.00 | 0.00 | 0.00 | 76 | 1006.6 |
| 20260504013403 | 42 | 164 | 1.7 | 2.6 | 0.00 | 0.00 | 0.00 | 76 | 1006.7 |
| 20260504012857 | 42 | 164 | 1.7 | 2.6 | 0.00 | 0.00 | 0.00 | 75 | 1006.6 |
| 20260504012350 | 42 | 164 | 1.7 | 2.6 | 0.00 | 0.00 | 0.00 | 75 | 1006.8 |
| 20260504011840 | 42 | 164 | 1.7 | 2.6 | 0.00 | 0.00 | 0.00 | 75 | 1006.8 |
| 20260504011337 | 42 | 164 | 0.9 | 2.6 | 0.00 | 0.00 | 0.00 | 75 | 1006.8 |
| 20260504011105 | 42 | 164 | 1.7 | 3.5 | 0.00 | 0.00 | 0.00 | 75 | 1006.9 |
| 20260504010331 | 42 | 164 | 1.7 | 3.5 | 0.00 | 0.00 | 0.00 | 75 | 1006.9 |
| 20260504005830 | 42 | 165 | 1.7 | 5.2 | 0.00 | 0.00 | 0.00 | 75 | 1007.0 |
| 20260504005330 | 43 | 165 | 1.7 | 5.2 | 0.00 | 0.00 | 0.00 | 74 | 1007.1 |
| 20260504004831 | 43 | 158 | 0.9 | 3.5 | 0.00 | 0.00 | 0.00 | 74 | 1007.2 |
| 20260504004331 | 43 | 158 | 1.7 | 3.5 | 0.00 | 0.00 | 0.00 | 74 | 1007.2 |
| 20260504003831 | 43 | 155 | 1.7 | 3.5 | 0.00 | 0.00 | 0.00 | 75 | 1007.3 |
| 20260504003330 | 43 | 155 | 2.6 | 3.5 | 0.00 | 0.00 | 0.00 | 75 | 1007.4 |
| 20260504002831 | 43 | 165 | 0.9 | 2.6 | 0.00 | 0.00 | 0.00 | 75 | 1007.3 |
| 20260504002330 | 43 | 165 | 0.9 | 2.6 | 0.00 | 0.00 | 0.00 | 75 | 1007.4 |
| 20260504001830 | 43 | 165 | 0.9 | 2.6 | 0.00 | 0.00 | 0.00 | 76 | 1007.5 |
| 20260504001331 | 43 | 165 | 0.9 | 1.7 | 0.00 | 0.00 | 0.00 | 76 | 1007.5 |
| 20260504001056 | 43 | 165 | 0.0 | 0.0 | 0.00 | 0.00 | 0.00 | 76 | 1007.5 |
| 20260504000332 | 43 | 165 | 0.0 | 0.9 | 0.00 | 0.00 | 0.00 | 77 | 1007.6 |
| 20260503235831 | 43 | 165 | 0.0 | 2.6 | 0.00 | 0.00 | 0.00 | 77 | 1007.6 |
| 20260503235331 | 43 | 165 | 1.7 | 2.6 | 0.00 | 0.00 | 0.00 | 76 | 1007.6 |
| 20260503235048 | 43 | 165 | 0.9 | 1.7 | 0.00 | 0.00 | 0.00 | 76 | 1007.7 |
| 20260503234331 | 43 | 165 | 0.0 | 1.7 | 0.00 | 0.00 | 0.00 | 76 | 1007.8 |
| 20260503233831 | 43 | 165 | 0.9 | 1.7 | 0.00 | 0.00 | 0.00 | 76 | 1007.9 |
| 20260503233330 | 43 | 166 | 0.0 | 1.7 | 0.00 | 0.00 | 0.00 | 77 | 1007.9 |
| 20260503232830 | 43 | 166 | 0.9 | 2.6 | 0.00 | 0.00 | 0.00 | 76 | 1008.0 |
| 20260503232324 | 43 | 166 | 1.7 | 2.6 | 0.00 | 0.00 | 0.00 | 77 | 1008.0 |
| 20260503231817 | 43 | 162 | 1.7 | 2.6 | 0.00 | 0.00 | 0.00 | 77 | 1008.0 |
| 20260503231537 | 43 | 162 | 0.0 | 1.7 | 0.00 | 0.00 | 0.00 | 77 | 1008.0 |
| 20260503230814 | 43 | 162 | 0.9 | 3.5 | 0.00 | 0.00 | 0.00 | 77 | 1008.2 |
| 20260503230310 | 43 | 161 | 0.9 | 3.5 | 0.00 | 0.00 | 0.00 | 76 | 1008.2 |
| 20260503225809 | 43 | 178 | 0.0 | 1.7 | 0.00 | 0.00 | 0.00 | 77 | 1008.1 |
| 20260503225308 | 43 | 179 | 0.9 | 2.6 | 0.00 | 0.00 | 0.00 | 77 | 1008.2 |
| 20260503225028 | 43 | 179 | 0.9 | 2.6 | 0.00 | 0.00 | 0.00 | 77 | 1008.2 |
| 20260503224308 | 43 | 179 | 1.7 | 2.6 | 0.00 | 0.00 | 0.00 | 77 | 1008.3 |
| 20260503224026 | 43 | 179 | 0.9 | 2.6 | 0.00 | 0.00 | 0.00 | 77 | 1008.3 |
| 20260503223308 | 43 | 171 | 1.7 | 2.6 | 0.00 | 0.00 | 0.00 | 78 | 1008.3 |
| 20260503222808 | 43 | 171 | 1.7 | 2.6 | 0.00 | 0.00 | 0.00 | 78 | 1008.3 |
| 20260503222308 | 43 | 171 | 1.7 | 3.5 | 0.00 | 0.00 | 0.00 | 79 | 1008.4 |
| 20260503221808 | 43 | 169 | 1.7 | 3.5 | 0.00 | 0.00 | 0.00 | 79 | 1008.4 |
| 20260503221308 | 43 | 154 | 1.7 | 2.6 | 0.00 | 0.00 | 0.00 | 80 | 1008.5 |
| 20260503220808 | 43 | 155 | 0.9 | 4.3 | 0.00 | 0.00 | 0.00 | 80 | 1008.4 |
| 20260503220308 | 43 | 151 | 2.6 | 4.3 | 0.00 | 0.00 | 0.00 | 80 | 1008.5 |
| 20260503215807 | 43 | 128 | 2.6 | 4.3 | 0.00 | 0.00 | 0.00 | 80 | 1008.4 |
| 20260503215307 | 43 | 162 | 1.7 | 3.5 | 0.00 | 0.00 | 0.00 | 80 | 1008.5 |
| 20260503214807 | 43 | 162 | 2.6 | 3.5 | 0.00 | 0.00 | 0.00 | 80 | 1008.7 |
| 20260503214748 | 43 | 147 | 2.6 | 3.5 | 0.00 | 0.00 | 0.00 | 80 | 1008.6 |
| 20260503213807 | 43 | 141 | 1.7 | 3.5 | 0.00 | 0.00 | 0.00 | 80 | 1008.7 |
| 20260503213307 | 43 | 141 | 0.0 | 3.5 | 0.00 | 0.00 | 0.00 | 80 | 1008.7 |
| 20260503212807 | 43 | 140 | 0.9 | 4.3 | 0.00 | 0.00 | 0.00 | 80 | 1008.8 |
| 20260503212306 | 43 | 140 | 1.7 | 4.3 | 0.00 | 0.00 | 0.00 | 80 | 1008.8 |
| 20260503211806 | 43 | 164 | 1.7 | 3.5 | 0.00 | 0.00 | 0.00 | 80 | 1008.8 |
| 20260503211306 | 44 | 169 | 1.7 | 3.5 | 0.00 | 0.00 | 0.00 | 80 | 1008.9 |
| 20260503210807 | 44 | 176 | 1.7 | 3.5 | 0.00 | 0.00 | 0.00 | 80 | 1008.9 |
| 20260503210306 | 44 | 180 | 1.7 | 3.5 | 0.00 | 0.00 | 0.00 | 80 | 1008.9 |
| 20260503205806 | 44 | 157 | 2.6 | 3.5 | 0.00 | 0.00 | 0.00 | 80 | 1008.9 |
| 20260503205533 | 44 | 152 | 0.0 | 2.6 | 0.00 | 0.00 | 0.00 | 79 | 1008.9 |
| 20260503204806 | 44 | 152 | 0.0 | 4.3 | 0.00 | 0.00 | 0.00 | 79 | 1008.9 |